SCP
0 0 -0 -0 -0 0 0 0 0 0 0 0 0 0 0 0 0 0 0 0 0 0 0 0 0 0 0 0 0 0 0 0 0 0 0 0 0 0 0 0 0 0 0 0
0 0 0 0 0 0 0 0 0 0 0 0 0 0 0 0 0 0 0 0 0 0 0 0 0 0 0 0 0 0 0 0 0 0 0 0 0 0 0 0 0 0 0 0
0 0 0 0 0 0 0 0 0 0 0 0 0 0 0 0 0 0 0 0 0 0 0 0 0 0 0 0 0 0 0 0 0 0 0 0 0 0 0 0 0 0 0 0
0 0 0 0 0 0 0 0 0 0 0 0 0 0 0 0 0 0 0 0 0 0 0 0 0 0 0 0 0 0 0 0 0 0 0 0 0 0 0 0 0 0 0 0
0 0 0 0 0 0 0 0 0 0 0 0 0 0 0 0 0 0 0 0 0 0 0 0 0 0 0 0 0 0 0 0 0 0 0 0 0 0 0 0 0 0 0 0
0 0 0 0 0 0 0 0 0 0 0 0 0 0 0 0 0 0 0 0 0 0 0 0 0 0 0 0 0 0 0 0 0 0 0 0 0 0 0 0 0 0 0 0
0 0 -0 0 0 0 0 0 0 0 0 0 0 0 0 0 0 0 0 0 0 0 0 0 0 0 0 0 0 0 0 0 0 0 0 0 0 0 0 0 0 0 0 0
0 0 -0 0 0 0 0 0 0 1 0 0 0 0 0 0 0 0 0 0 0 0 0 0 0 0 0 0 0 0 0 0 0 0 0 0 0 0 0 0 0 0 0 0
-0 0 -0 0 0 0 0 0 0 0 0 0 0 0 0 0 0 0 0 0 0 0 0 0 0 0 0 0 0 0 0 0 0 0 0 0 0 0 0 0 0 0 0 0
-0 0 0 0 0 0 0 0 0 0 0 0 0 0 0 0 0 0 0 0 0 0 0 0 0 0 0 0 0 0 0 0 0 0 0 0 0 0 0 0 0 0 0 0
0 0 0 0 0 0 0 0 0 0 0 0 0 0 0 0 0 0 0 0 0 0 0 0 0 0 0 0 0 0 0 0 0 0 0 0 0 0 0 0 0 0 0 0
0 0 0 0 0 0 0 0 0 0 0 0 0 0 0 0 0 0 0 0 0 0 0 0 0 0 0 0 0 0 0 0 0 0 0 0 0 0 0 0 0 0 0 0
0 0 0 0 0 0 0 0 0 0 0 0 0 0 0 0 0 0 0 0 0 0 0 0 0 0 0 0 0 0 0 0 0 0 0 0 0 0 0 0 0 0 0 0
0 0 0 0 0 0 0 0 0 0 0 0 0 0 0 0 0 0 0 0 0 0 0 0 0 0 0 0 0 0 0 0 0 0 0 0 0 0 0 0 0 0 0 0
0 0 0 -0 0 0 0 0 0 0 0 0 0 0 0 0 0 0 0 0 0 0 0 0 0 0 0 0 0 0 0 0 0 0 0 0 0 0 0 0 0 0 0 0
0 0 0 0 0 0 0 0 0 0 0 0 0 0 0 0 0 0 0 0 0 0 0 0 0 0 0 0 0 0 0 0 0 0 0 0 0 0 0 0 0 0 0 0
-0 -0 -0 -0 -0 0 0 0 0 0 0 0 0 0 0 0 0 0 0 0 0 0 0 0 0 0 0 0 0 0 0 0 0 0 0 0 0 0 0 0 0 0 0 0
0 0 0 -0 -0 0 0 0 0 0 0 0 0 0 0 0 0 0 0 0 0 0 0 0 0 0 0 0 0 0 0 0 0 0 0 0 0 0 0 0 0 0 0 0
0 0 0 0 0 0 0 0 0 0 0 0 0 0 0 0 0 0 0 0 0 0 0 0 0 0 0 0 0 0 0 0 0 0 0 0 0 0 0 0 0 0 0 0
0 0 0 0 0 0 0 0 0 0 0 0 0 0 0 0 0 0 0 0 0 0 0 0 0 0 0 0 0 0 0 0 0 0 0 0 0 0 0 0 0 0 0 0
0 0 0 0 0 0 0 0 0 0 0 0 0 0 0 0 0 0 0 0 0 0 0 0 0 0 0 0 0 0 0 0 0 0 0 0 0 0 0 0 0 0 0 0
0 0 0 0 0 0 0 0 0 0 0 0 0 0 0 0 0 0 0 0 0 0 0 0 0 0 0 0 0 0 0 0 0 0 0 0 0 0 0 0 0 0 0 0
-0 -0 0 0 0 0 0 0 0 0 0 0 0 0 0 0 0 0 0 0 0 0 0 0 0 0 0 0 0 0 0 0 0 0 0 0 0 0 0 -0 0 -0 -0 -0
0 0 0 0 0 0 0 0 0 0 0 0 0 0 0 0 0 0 0 0 0 0 0 0 0 0 0 0 0 0 0 0 0 -0 -0 -0 -0 -0 -0 -0 -0 -0 -0 -0
0 0 0 0 0 0 0 0 0 0 0 0 0 0 0 0 0 0 0 0 0 0 0 0 0 0 0 0 0 0 0 0 -0 -0 -0 -0 -0 -0 -0 -0 -0 -0 -0 -0
0 0 0 0 0 0 0 0 0 0 0 0 0 0 0 0 0 0 0 0 0 0 0 0 0 0 0 0 0 0 0 -0 -0 -0 -0 -0 -0 -0 -0 -0 -0 -0 0 0
0 0 0 0 0 0 0 0 0 0 0 0 0 0 0 0 0 0 0 0 0 0 0 0 0 0 0 0 0 0 0 0 0 -0 -0 0 0 0 0 0 0 0 0 0
Wind_Speed_500mb
81 92 94 99 102 108 107 83 16 59 87 23 7 21 7 26 35 29 5 14 18 48 56 38 43 41 25 60 50 38 11 6 8 4 6 4 21 20 17 11 12 7 8 24
94 103 92 98 106 108 116 56 22 67 94 22 7 11 16 32 49 20 21 12 16 37 41 19 28 21 7 52 47 41 22 10 11 9 1 3 18 28 26 11 4 18 8 13
75 90 108 114 123 122 108 47 14 42 64 32 9 25 21 33 34 8 11 14 41 48 36 12 24 21 5 29 52 35 30 7 14 20 7 23 18 35 35 31 12 24 38 46
62 69 111 145 135 145 105 33 8 31 23 15 26 25 24 41 21 7 15 20 59 46 20 10 26 19 13 22 37 24 15 14 8 3 14 16 25 32 44 47 42 23 55 42
72 81 122 149 148 144 77 25 15 15 22 42 26 27 40 52 24 13 12 30 49 40 32 18 36 23 22 16 10 17 6 6 16 9 7 8 2 17 33 45 38 46 48 64
97 101 121 155 151 135 60 51 50 61 22 39 33 19 43 41 24 18 22 55 39 22 25 35 41 31 29 31 31 24 18 11 10 9 1 9 13 37 34 25 32 39 40 51
96 117 143 153 146 111 69 63 68 30 25 27 31 41 41 31 17 30 47 60 25 19 62 62 52 53 40 25 18 23 19 10 4 6 7 16 3 5 30 41 42 42 44 49
108 148 143 138 119 74 55 68 71 35 29 23 34 45 31 46 54 27 29 14 52 73 56 21 13 7 6 11 13 9 10 12 6 9 13 15 24 11 15 20 31 27 41 39
135 135 134 113 94 64 84 71 60 73 27 10 72 42 55 36 20 13 16 60 44 31 9 7 8 9 9 8 5 12 14 5 9 6 9 16 2 4 15 5 26 12 19 17
130 124 107 99 76 54 61 55 75 70 41 30 33 18 27 28 26 18 14 17 10 16 5 7 6 6 2 14 16 11 9 7 11 9 11 13 11 6 7 15 3 15 16 17
110 95 80 79 67 59 55 61 73 80 36 45 25 26 29 41 36 21 30 16 6 5 8 6 5 6 9 7 8 13 14 14 7 5 7 18 11 3 14 10 14 24 24 26
99 91 66 67 70 64 68 78 62 106 62 47 64 51 40 46 38 84 18 12 9 10 10 4 8 6 4 5 8 2 8 7 9 19 6 10 18 26 19 19 12 24 37 41
78 74 58 59 70 78 88 94 89 105 80 63 50 45 49 43 55 62 24 11 12 13 16 11 5 7 6 8 6 6 2 9 3 3 11 9 13 14 16 29 27 30 34 47
74 71 65 72 86 95 91 104 77 85 48 14 27 49 53 34 36 19 20 45 38 41 25 12 5 6 9 5 7 3 5 9 3 6 10 13 9 6 29 47 38 39 44 45
56 56 58 61 87 102 97 82 78 81 43 13 18 60 52 41 31 29 36 47 56 24 11 8 5 6 6 6 5 5 9 5 4 2 4 10 18 28 62 40 42 47 54 61
58 65 70 73 76 72 69 43 43 62 103 33 8 18 39 41 44 46 44 40 29 18 13 9 9 7 2 7 6 7 6 4 6 8 26 40 52 48 29 51 58 53 57 56
61 59 58 58 60 57 25 21 35 50 41 23 9 7 12 22 28 36 37 30 22 16 11 10 5 5 5 4 8 5 5 12 19 20 28 11 20 32 55 55 57 57 54 49
71 69 71 75 66 76 67 50 36 41 38 24 8 5 7 14 12 10 12 9 13 23 10 7 8 4 5 5 11 1 9 15 7 7 24 28 32 39 41 43 46 49 47 47
60 63 64 60 75 37 40 55 51 42 27 15 11 5 7 7 9 9 8 8 7 7 6 5 4 3 3 7 3 5 9 8 16 22 21 18 26 33 36 39 40 43 45 43
27 36 25 18 14 24 17 17 11 22 26 21 8 6 4 7 6 6 4 8 5 3 4 4 7 3 7 6 6 7 9 10 15 21 20 28 30 35 38 39 37 35 37 38
27 17 13 18 20 12 13 16 20 21 10 20 12 18 6 13 5 4 7 4 2 4 1 3 2 2 9 9 6 7 6 8 11 14 17 21 26 32 36 36 35 34 33 31
28 18 20 18 19 18 17 6 8 14 5 14 7 12 10 8 6 3 5 5 2 4 1 1 2 5 15 6 4 2 1 2 4 9 11 14 18 22 26 29 29 29 27 22
20 12 14 22 22 24 12 10 6 5 11 16 15 5 5 4 7 10 3 7 4 2 4 2 0 14 13 8 6 4 3 1 5 6 8 10 13 16 20 20 20 20 17 17
18 20 18 10 9 7 2 3 3 1 4 12 6 5 7 7 7 2 8 3 1 4 2 4 6 20 16 11 9 7 6 3 5 2 3 7 9 12 15 16 18 18 21 23
18 18 11 9 5 5 4 3 3 4 6 7 2 4 4 7 7 6 7 4 3 6 5 4 20 23 17 13 11 6 5 4 3 2 3 7 8 10 11 13 16 17 19 22
17 21 11 8 5 5 4 5 3 7 6 5 7 3 6 7 3 3 5 8 8 4 3 18 26 21 17 14 11 8 6 4 2 1 3 5 6 8 10 13 15 17 19 20
13 15 20 13 13 7 5 4 6 7 3 2 2 7 3 3 4 2 6 5 2 5 21 24 21 17 14 11 10 8 5 3 0 2 3 3 5 7 10 9 11 15 17 18
Wind_Direction_500mb
245 230 231 232 219 208 186 184 185 192 192 189 170 193 202 162 178 171 143 137 131 165 169 171 184 194 192 188 174 188 171 145 150 117 8 260 180 191 173 188 180 234 290 258
246 243 223 212 203 188 171 176 162 180 183 194 170 115 160 167 159 165 150 129 151 162 162 151 181 185 138 176 175 174 168 161 144 141 71 23 201 207 201 151 87 212 215 255
236 233 218 204 191 186 171 153 166 160 180 194 155 151 163 151 158 75 90 118 127 140 156 93 169 150 144 186 183 160 141 162 215 211 184 143 178 199 201 196 197 233 234 250
229 220 200 190 189 173 158 154 180 148 168 183 177 180 156 144 144 89 129 136 151 147 146 131 163 159 122 167 166 148 162 191 166 119 134 154 192 194 200 208 221 211 250 258
184 166 164 170 174 163 159 136 152 110 140 159 146 184 171 154 145 146 149 156 156 158 164 165 162 140 163 160 161 152 152 155 167 195 132 98 232 221 216 220 226 244 267 271
158 160 159 160 159 158 157 158 149 130 143 164 170 185 158 147 129 24 149 141 137 137 146 132 146 152 144 160 166 170 161 135 159 205 161 92 268 230 219 214 218 233 244 259
159 159 154 155 157 161 162 160 140 126 149 162 166 167 137 152 138 131 137 141 117 124 126 108 92 78 79 126 124 161 150 112 42 138 145 217 247 11 225 223 235 233 250 261
156 151 157 161 160 163 165 143 141 137 146 144 136 136 120 106 100 93 94 81 133 132 116 105 86 39 61 20 31 67 163 129 117 186 211 304 272 200 182 191 244 249 257 269
146 148 153 153 160 166 159 156 157 141 122 129 137 132 129 128 116 78 79 117 139 141 87 87 124 156 126 163 103 29 102 91 195 167 203 223 213 299 212 116 267 59 29 5
146 149 153 160 158 161 157 155 152 132 98 121 138 131 134 126 97 107 136 157 99 139 91 88 128 125 353 154 152 155 123 120 189 185 234 278 263 300 131 183 309 28 12 336
142 142 149 161 168 171 158 135 152 138 102 61 127 134 126 128 135 146 163 110 44 61 79 115 139 133 180 123 140 169 157 156 183 139 235 266 13 127 224 0 349 348 341 330
151 147 145 159 165 155 159 124 142 129 108 104 87 89 109 134 143 130 140 116 112 140 107 116 120 109 163 124 173 199 184 217 190 198 206 61 29 87 70 33 358 334 324 321
157 160 154 147 147 152 160 132 127 124 102 79 90 53 85 117 134 134 112 129 128 103 101 130 112 121 155 155 215 130 160 13 258 216 68 67 103 90 28 2 347 328 320 316
158 149 144 146 150 146 142 131 135 125 108 85 53 83 76 106 134 135 147 142 124 119 112 89 108 118 213 166 98 89 4 332 360 247 91 112 126 46 347 331 327 324 319 318
139 151 157 134 146 143 140 129 133 134 126 124 108 77 69 86 110 126 134 138 133 109 76 62 82 102 114 69 107 98 11 40 227 301 52 303 280 300 319 322 326 323 321 318
114 127 133 140 137 134 125 86 93 116 119 108 83 63 69 82 98 114 117 116 95 76 82 81 79 89 33 143 173 100 75 5 320 295 295 294 299 309 312 315 319 317 318 318
116 123 128 137 144 150 153 119 131 115 102 99 90 65 46 62 74 72 62 66 66 77 88 62 91 104 53 92 190 113 315 307 301 286 317 323 311 310 314 319 318 318 318 320
102 108 113 114 119 106 97 101 106 104 88 79 96 79 69 35 48 62 59 66 52 39 83 64 42 73 18 96 129 157 310 323 276 249 312 297 305 317 319 321 324 325 328 332
99 100 99 102 89 72 84 85 75 71 80 100 69 102 131 64 71 92 77 77 69 38 65 40 335 335 112 124 180 306 322 327 298 312 320 316 324 331 337 340 339 338 341 342
103 111 89 53 37 78 84 53 55 39 42 53 78 3 80 59 51 70 101 56 114 108 34 33 46 86 136 182 315 312 319 316 318 329 344 342 346 347 349 350 346 345 346 349
85 66 70 69 56 54 50 54 41 358 45 28 37 36 43 47 67 87 32 124 101 98 111 230 82 157 193 214 289 303 319 327 326 331 339 339 339 342 348 355 359 360 1 0
72 83 70 37 34 47 69 41 11 38 58 7 10 349 26 34 40 119 29 98 102 138 310 93 164 149 169 198 227 244 10 4 359 346 352 355 354 356 0 360 4 8 7 10
42 45 52 15 355 45 47 10 29 61 3 5 359 52 13 27 49 67 61 74 70 259 44 263 250 160 183 181 174 156 128 56 59 17 1 14 13 12 14 14 16 16 15 27
48 36 30 47 12 61 137 109 137 65 337 344 349 337 26 17 51 10 79 41 220 82 227 221 158 182 173 165 159 160 140 156 95 59 9 35 27 28 21 13 22 24 32 36
61 39 47 56 105 59 62 53 71 45 7 25 71 52 28 23 76 34 117 89 214 229 217 140 158 158 158 153 149 144 126 104 81 5 18 35 34 32 29 26 30 33 40 41
52 52 82 84 90 38 30 14 69 26 17 61 56 81 66 51 75 112 183 136 217 181 186 148 148 149 154 153 141 134 131 139 127 31 26 34 31 43 34 36 33 36 41 40
52 50 59 80 63 67 50 14 338 19 3 55 67 63 150 116 70 232 205 219 10 156 138 143 146 151 146 137 130 142 147 146 163 316 333 357 28 38 41 33 41 36 28 23
Wind_Speed_850mb
81 92 94 99 102 108 107 83 16 59 87 23 7 21 7 26 35 29 5 14 18 48 56 38 43 41 25 60 50 38 11 6 8 4 6 4 21 20 17 11 12 7 8 24
94 103 92 98 106 108 116 56 22 67 94 22 7 11 16 32 49 20 21 12 16 37 41 19 28 21 7 52 47 41 22 10 11 9 1 3 18 28 26 11 4 18 8 13
75 90 108 114 123 122 108 47 14 42 64 32 9 25 21 33 34 8 11 14 41 48 36 12 24 21 5 29 52 35 30 7 14 20 7 23 18 35 35 31 12 24 38 46
62 69 111 145 135 145 105 33 8 31 23 15 26 25 24 41 21 7 15 20 59 46 20 10 26 19 13 22 37 24 15 14 8 3 14 16 25 32 44 47 42 23 55 42
72 81 122 149 148 144 77 25 15 15 22 42 26 27 40 52 24 13 12 30 49 40 32 18 36 23 22 16 10 17 6 6 16 9 7 8 2 17 33 45 38 46 48 64
97 101 121 155 151 135 60 51 50 61 22 39 33 19 43 41 24 18 22 55 39 22 25 35 41 31 29 31 31 24 18 11 10 9 1 9 13 37 34 25 32 39 40 51
96 117 143 153 146 111 69 63 68 30 25 27 31 41 41 31 17 30 47 60 25 19 62 62 52 53 40 25 18 23 19 10 4 6 7 16 3 5 30 41 42 42 44 49
108 148 143 138 119 74 55 68 71 35 29 23 34 45 31 46 54 27 29 14 52 73 56 21 13 7 6 11 13 9 10 12 6 9 13 15 24 11 15 20 31 27 41 39
135 135 134 113 94 64 84 71 60 73 27 10 72 42 55 36 20 13 16 60 44 31 9 7 8 9 9 8 5 12 14 5 9 6 9 16 2 4 15 5 26 12 19 17
130 124 107 99 76 54 61 55 75 70 41 30 33 18 27 28 26 18 14 17 10 16 5 7 6 6 2 14 16 11 9 7 11 9 11 13 11 6 7 15 3 15 16 17
110 95 80 79 67 59 55 61 73 80 36 45 25 26 29 41 36 21 30 16 6 5 8 6 5 6 9 7 8 13 14 14 7 5 7 18 11 3 14 10 14 24 24 26
99 91 66 67 70 64 68 78 62 106 62 47 64 51 40 46 38 84 18 12 9 10 10 4 8 6 4 5 8 2 8 7 9 19 6 10 18 26 19 19 12 24 37 41
78 74 58 59 70 78 88 94 89 105 80 63 50 45 49 43 55 62 24 11 12 13 16 11 5 7 6 8 6 6 2 9 3 3 11 9 13 14 16 29 27 30 34 47
74 71 65 72 86 95 91 104 77 85 48 14 27 49 53 34 36 19 20 45 38 41 25 12 5 6 9 5 7 3 5 9 3 6 10 13 9 6 29 47 38 39 44 45
56 56 58 61 87 102 97 82 78 81 43 13 18 60 52 41 31 29 36 47 56 24 11 8 5 6 6 6 5 5 9 5 4 2 4 10 18 28 62 40 42 47 54 61
58 65 70 73 76 72 69 43 43 62 103 33 8 18 39 41 44 46 44 40 29 18 13 9 9 7 2 7 6 7 6 4 6 8 26 40 52 48 29 51 58 53 57 56
61 59 58 58 60 57 25 21 35 50 41 23 9 7 12 22 28 36 37 30 22 16 11 10 5 5 5 4 8 5 5 12 19 20 28 11 20 32 55 55 57 57 54 49
71 69 71 75 66 76 67 50 36 41 38 24 8 5 7 14 12 10 12 9 13 23 10 7 8 4 5 5 11 1 9 15 7 7 24 28 32 39 41 43 46 49 47 47
60 63 64 60 75 37 40 55 51 42 27 15 11 5 7 7 9 9 8 8 7 7 6 5 4 3 3 7 3 5 9 8 16 22 21 18 26 33 36 39 40 43 45 43
27 36 25 18 14 24 17 17 11 22 26 21 8 6 4 7 6 6 4 8 5 3 4 4 7 3 7 6 6 7 9 10 15 21 20 28 30 35 38 39 37 35 37 38
27 17 13 18 20 12 13 16 20 21 10 20 12 18 6 13 5 4 7 4 2 4 1 3 2 2 9 9 6 7 6 8 11 14 17 21 26 32 36 36 35 34 33 31
28 18 20 18 19 18 17 6 8 14 5 14 7 12 10 8 6 3 5 5 2 4 1 1 2 5 15 6 4 2 1 2 4 9 11 14 18 22 26 29 29 29 27 22
20 12 14 22 22 24 12 10 6 5 11 16 15 5 5 4 7 10 3 7 4 2 4 2 0 14 13 8 6 4 3 1 5 6 8 10 13 16 20 20 20 20 17 17
18 20 18 10 9 7 2 3 3 1 4 12 6 5 7 7 7 2 8 3 1 4 2 4 6 20 16 11 9 7 6 3 5 2 3 7 9 12 15 16 18 18 21 23
18 18 11 9 5 5 4 3 3 4 6 7 2 4 4 7 7 6 7 4 3 6 5 4 20 23 17 13 11 6 5 4 3 2 3 7 8 10 11 13 16 17 19 22
17 21 11 8 5 5 4 5 3 7 6 5 7 3 6 7 3 3 5 8 8 4 3 18 26 21 17 14 11 8 6 4 2 1 3 5 6 8 10 13 15 17 19 20
13 15 20 13 13 7 5 4 6 7 3 2 2 7 3 3 4 2 6 5 2 5 21 24 21 17 14 11 10 8 5 3 0 2 3 3 5 7 10 9 11 15 17 18
Wind_Direction_850mb
245 230 231 232 219 208 186 184 185 192 192 189 170 193 202 162 178 171 143 137 131 165 169 171 184 194 192 188 174 188 171 145 150 117 8 260 180 191 173 188 180 234 290 258
246 243 223 212 203 188 171 176 162 180 183 194 170 115 160 167 159 165 150 129 151 162 162 151 181 185 138 176 175 174 168 161 144 141 71 23 201 207 201 151 87 212 215 255
236 233 218 204 191 186 171 153 166 160 180 194 155 151 163 151 158 75 90 118 127 140 156 93 169 150 144 186 183 160 141 162 215 211 184 143 178 199 201 196 197 233 234 250
229 220 200 190 189 173 158 154 180 148 168 183 177 180 156 144 144 89 129 136 151 147 146 131 163 159 122 167 166 148 162 191 166 119 134 154 192 194 200 208 221 211 250 258
184 166 164 170 174 163 159 136 152 110 140 159 146 184 171 154 145 146 149 156 156 158 164 165 162 140 163 160 161 152 152 155 167 195 132 98 232 221 216 220 226 244 267 271
158 160 159 160 159 158 157 158 149 130 143 164 170 185 158 147 129 24 149 141 137 137 146 132 146 152 144 160 166 170 161 135 159 205 161 92 268 230 219 214 218 233 244 259
159 159 154 155 157 161 162 160 140 126 149 162 166 167 137 152 138 131 137 141 117 124 126 108 92 78 79 126 124 161 150 112 42 138 145 217 247 11 225 223 235 233 250 261
156 151 157 161 160 163 165 143 141 137 146 144 136 136 120 106 100 93 94 81 133 132 116 105 86 39 61 20 31 67 163 129 117 186 211 304 272 200 182 191 244 249 257 269
146 148 153 153 160 166 159 156 157 141 122 129 137 132 129 128 116 78 79 117 139 141 87 87 124 156 126 163 103 29 102 91 195 167 203 223 213 299 212 116 267 59 29 5
146 149 153 160 158 161 157 155 152 132 98 121 138 131 134 126 97 107 136 157 99 139 91 88 128 125 353 154 152 155 123 120 189 185 234 278 263 300 131 183 309 28 12 336
142 142 149 161 168 171 158 135 152 138 102 61 127 134 126 128 135 146 163 110 44 61 79 115 139 133 180 123 140 169 157 156 183 139 235 266 13 127 224 0 349 348 341 330
151 147 145 159 165 155 159 124 142 129 108 104 87 89 109 134 143 130 140 116 112 140 107 116 120 109 163 124 173 199 184 217 190 198 206 61 29 87 70 33 358 334 324 321
157 160 154 147 147 152 160 132 127 124 102 79 90 53 85 117 134 134 112 129 128 103 101 130 112 121 155 155 215 130 160 13 258 216 68 67 103 90 28 2 347 328 320 316
158 149 144 146 150 146 142 131 135 125 108 85 53 83 76 106 134 135 147 142 124 119 112 89 108 118 213 166 98 89 4 332 360 247 91 112 126 46 347 331 327 324 319 318
139 151 157 134 146 143 140 129 133 134 126 124 108 77 69 86 110 126 134 138 133 109 76 62 82 102 114 69 107 98 11 40 227 301 52 303 280 300 319 322 326 323 321 318
114 127 133 140 137 134 125 86 93 116 119 108 83 63 69 82 98 114 117 116 95 76 82 81 79 89 33 143 173 100 75 5 320 295 295 294 299 309 312 315 319 317 318 318
116 123 128 137 144 150 153 119 131 115 102 99 90 65 46 62 74 72 62 66 66 77 88 62 91 104 53 92 190 113 315 307 301 286 317 323 311 310 314 319 318 318 318 320
102 108 113 114 119 106 97 101 106 104 88 79 96 79 69 35 48 62 59 66 52 39 83 64 42 73 18 96 129 157 310 323 276 249 312 297 305 317 319 321 324 325 328 332
99 100 99 102 89 72 84 85 75 71 80 100 69 102 131 64 71 92 77 77 69 38 65 40 335 335 112 124 180 306 322 327 298 312 320 316 324 331 337 340 339 338 341 342
103 111 89 53 37 78 84 53 55 39 42 53 78 3 80 59 51 70 101 56 114 108 34 33 46 86 136 182 315 312 319 316 318 329 344 342 346 347 349 350 346 345 346 349
85 66 70 69 56 54 50 54 41 358 45 28 37 36 43 47 67 87 32 124 101 98 111 230 82 157 193 214 289 303 319 327 326 331 339 339 339 342 348 355 359 360 1 0
72 83 70 37 34 47 69 41 11 38 58 7 10 349 26 34 40 119 29 98 102 138 310 93 164 149 169 198 227 244 10 4 359 346 352 355 354 356 0 360 4 8 7 10
42 45 52 15 355 45 47 10 29 61 3 5 359 52 13 27 49 67 61 74 70 259 44 263 250 160 183 181 174 156 128 56 59 17 1 14 13 12 14 14 16 16 15 27
48 36 30 47 12 61 137 109 137 65 337 344 349 337 26 17 51 10 79 41 220 82 227 221 158 182 173 165 159 160 140 156 95 59 9 35 27 28 21 13 22 24 32 36
61 39 47 56 105 59 62 53 71 45 7 25 71 52 28 23 76 34 117 89 214 229 217 140 158 158 158 153 149 144 126 104 81 5 18 35 34 32 29 26 30 33 40 41
52 52 82 84 90 38 30 14 69 26 17 61 56 81 66 51 75 112 183 136 217 181 186 148 148 149 154 153 141 134 131 139 127 31 26 34 31 43 34 36 33 36 41 40
52 50 59 80 63 67 50 14 338 19 3 55 67 63 150 116 70 232 205 219 10 156 138 143 146 151 146 137 130 142 147 146 163 316 333 357 28 38 41 33 41 36 28 23